IZ1WIY-2 Weather Reports


Display with metric or nautical units.
time (UTC)temp
F
wind
direction
speed
MPH
gust
MPH
rain 1hr
in
rain 24hr
in
rain mn
in
humidity
%
barometer
mb
20260506225503 60 26 0.0 6.0 0.00 0.71 0.00 81 1012.2
20260506225003 60 22 0.0 1.0 0.00 0.71 0.00 81 1012.2
20260506224503 60 22 1.0 2.0 0.00 0.71 0.00 81 1012.2
20260506224003 59 24 2.0 4.0 0.00 0.71 0.00 81 1012.1
20260506223503 59 20 2.0 5.0 0.00 0.71 0.00 81 1012.1
20260506223003 59 20 3.0 6.0 0.00 0.71 0.00 81 1012.1
20260506222503 59 27 3.0 6.0 0.00 0.71 0.00 81 1012.2
20260506222003 59 31 3.0 6.0 0.00 0.71 0.00 81 1012.2
20260506221504 59 33 3.0 5.0 0.00 0.71 0.00 81 1012.2
20260506221003 59 30 3.0 8.0 0.00 0.71 0.00 81 1012.2
20260506220503 59 25 3.0 8.0 0.00 0.71 0.00 81 1012.2
20260506220008 59 24 4.0 7.0 0.00 0.71 0.00 81 1012.2
20260506215503 59 30 4.0 7.0 0.00 0.71 0.71 81 1012.2
20260506215004 59 31 3.0 7.0 0.00 0.71 0.71 81 1012.2
20260506214503 59 22 3.0 6.0 0.00 0.71 0.71 81 1012.3
20260506214003 59 18 4.0 5.0 0.00 0.71 0.71 81 1012.3
20260506213503 59 28 4.0 7.0 0.00 0.71 0.71 81 1012.3
20260506213003 59 30 4.0 8.0 0.00 0.71 0.71 81 1012.3
20260506212503 59 27 4.0 8.0 0.00 0.71 0.71 81 1012.2
20260506212003 59 32 3.0 9.0 0.00 0.71 0.71 80 1012.3
20260506211503 59 30 2.0 9.0 0.00 0.71 0.71 80 1012.2
20260506211003 59 9 2.0 9.0 0.00 0.71 0.71 80 1012.2
20260506210503 59 345 3.0 4.0 0.00 0.71 0.71 81 1012.2
20260506210004 59 14 3.0 6.0 0.00 0.71 0.71 81 1012.2
20260506205503 59 28 3.0 6.0 0.00 0.71 0.71 80 1012.1
20260506205003 59 31 3.0 6.0 0.00 0.71 0.71 80 1012.1
20260506204503 59 34 3.0 5.0 0.00 0.71 0.71 80 1012.1
20260506204003 59 29 3.0 6.0 0.00 0.71 0.71 80 1012.1
20260506203503 59 23 3.0 6.0 0.00 0.71 0.71 80 1012.1
20260506203003 59 27 3.0 6.0 0.00 0.71 0.71 80 1012.0
20260506202503 59 28 3.0 6.0 0.00 0.71 0.71 80 1012.0
20260506202003 59 28 3.0 5.0 0.00 0.71 0.71 80 1011.9
20260506201503 59 28 4.0 5.0 0.00 0.71 0.71 80 1011.9
20260506201003 60 23 4.0 7.0 0.00 0.71 0.71 80 1011.8
20260506200503 60 31 3.0 8.0 0.00 0.71 0.71 80 1011.8
20260506200003 60 34 3.0 8.0 0.00 0.71 0.71 79 1011.8
20260506195503 60 22 3.0 5.0 0.00 0.71 0.71 79 1011.7
20260506195003 61 7 3.0 5.0 0.00 0.71 0.71 79 1011.6
20260506194503 61 15 3.0 5.0 0.00 0.71 0.71 79 1011.6
20260506194003 61 17 2.0 5.0 0.00 0.71 0.71 79 1011.5
20260506193503 61 2 2.0 4.0 0.00 0.71 0.71 78 1011.5
20260506193003 62 352 2.0 4.0 0.00 0.71 0.71 78 1011.4
20260506192503 62 344 2.0 4.0 0.00 0.71 0.71 78 1011.3
20260506192004 62 353 2.0 3.0 0.00 0.71 0.71 78 1011.3
20260506191504 62 3 2.0 4.0 0.00 0.71 0.71 78 1011.2
20260506191003 62 358 1.0 4.0 0.00 0.71 0.71 77 1011.1
20260506190503 62 316 1.0 4.0 0.00 0.71 0.71 77 1011.0
20260506190004 63 212 2.0 3.0 0.00 0.71 0.71 77 1010.9
20260506185503 63 198 3.0 8.0 0.00 0.71 0.71 77 1010.8
20260506185003 63 203 3.0 8.0 0.00 0.71 0.71 77 1010.8
20260506184503 64 213 3.0 6.0 0.00 0.71 0.71 77 1010.7
20260506184003 63 212 3.0 5.0 0.00 0.71 0.71 77 1010.7
20260506183503 63 206 3.0 6.0 0.00 0.71 0.71 77 1010.6
20260506183004 63 206 3.0 6.0 0.00 0.71 0.71 77 1010.6
20260506182503 63 205 3.0 6.0 0.00 0.71 0.71 77 1010.5
20260506182003 63 211 4.0 5.0 0.00 0.71 0.71 77 1010.5
20260506181503 64 215 4.0 6.0 0.00 0.71 0.71 77 1010.5
20260506181003 64 212 5.0 7.0 0.00 0.71 0.71 77 1010.4
20260506180503 64 213 5.0 7.0 0.00 0.71 0.71 77 1010.4
20260506180004 64 215 5.0 7.0 0.00 0.71 0.71 77 1010.4
20260506175503 64 213 6.0 7.0 0.00 0.71 0.71 77 1010.3
20260506175003 64 212 6.0 11.0 0.00 0.71 0.71 77 1010.3
20260506174503 64 212 7.0 11.0 0.00 0.71 0.71 77 1010.3
20260506174003 64 210 7.0 10.0 0.00 0.71 0.71 76 1010.2
20260506173503 64 213 6.0 10.0 0.00 0.71 0.71 77 1010.2
20260506173003 64 214 5.0 9.0 0.00 0.71 0.71 77 1010.2
20260506172503 64 213 5.0 9.0 0.00 0.71 0.71 78 1010.1
20260506172003 64 212 5.0 8.0 0.00 0.71 0.71 78 1010.1
20260506171503 64 213 5.0 7.0 0.00 0.71 0.71 77 1010.0
20260506171003 64 213 5.0 7.0 0.00 0.71 0.71 77 1010.0
20260506170503 64 213 5.0 7.0 0.00 0.71 0.71 77 1010.0
20260506170003 64 214 5.0 7.0 0.00 0.71 0.71 77 1010.0
20260506165503 64 212 5.0 8.0 0.00 0.71 0.71 76 1009.9
20260506165003 65 213 6.0 8.0 0.00 0.71 0.71 76 1010.0
20260506164503 65 210 7.0 10.0 0.00 0.71 0.71 77 1009.9
20260506164003 65 208 7.0 10.0 0.00 0.71 0.71 78 1010.0
20260506163503 65 210 6.0 11.0 0.00 0.71 0.71 78 1010.0
20260506163003 65 209 5.0 11.0 0.00 0.71 0.71 79 1010.0
20260506162503 65 209 5.0 9.0 0.00 0.71 0.71 79 1009.9
20260506162003 65 208 5.0 7.0 0.00 0.71 0.71 79 1010.0
20260506161503 64 205 4.0 7.0 0.00 0.71 0.71 79 1009.9
20260506161003 65 210 4.0 7.0 0.00 0.71 0.71 79 1009.9
20260506160503 65 212 4.0 7.0 0.00 0.71 0.71 79 1010.0
20260506160004 65 212 5.0 8.0 0.00 0.71 0.71 80 1009.9
20260506155503 65 214 5.0 8.0 0.00 0.71 0.71 80 1009.9
20260506155003 65 214 6.0 8.0 0.00 0.71 0.71 80 1010.0
20260506154503 65 213 6.0 9.0 0.00 0.71 0.71 80 1009.9
20260506154003 65 213 6.0 9.0 0.00 0.71 0.71 80 1009.9
20260506153503 65 214 6.0 9.0 0.00 0.71 0.71 80 1009.9
20260506153003 66 212 6.0 8.0 0.00 0.71 0.71 80 1009.9
20260506152503 65 212 5.0 8.0 0.00 0.71 0.71 80 1009.9
20260506152003 65 215 5.0 8.0 0.00 0.71 0.71 80 1009.8
20260506151503 66 215 5.0 8.0 0.00 0.71 0.71 80 1009.8
20260506151003 66 212 5.0 8.0 0.00 0.71 0.71 79 1009.8
20260506150503 66 212 5.0 8.0 0.00 0.71 0.71 80 1009.8
20260506150003 66 214 5.0 8.0 0.00 0.71 0.71 80 1009.8
20260506145503 66 214 5.0 7.0 0.00 0.71 0.71 80 1009.8
20260506145003 66 212 5.0 7.0 0.00 0.71 0.71 80 1009.8
20260506144503 66 211 5.0 7.0 0.00 0.71 0.71 79 1009.7
20260506144003 67 212 5.0 7.0 0.00 0.71 0.71 80 1009.7
20260506143503 66 210 5.0 7.0 0.00 0.71 0.71 80 1009.7
20260506143003 66 208 5.0 7.0 0.00 0.71 0.71 80 1009.7
20260506142503 66 208 5.0 7.0 0.00 0.71 0.71 80 1009.7
20260506142003 66 208 5.0 7.0 0.00 0.71 0.71 80 1009.6
20260506141506 66 211 5.0 7.0 0.00 0.71 0.71 80 1009.6
20260506141003 66 211 5.0 7.0 0.00 0.71 0.71 80 1009.7
20260506140503 66 210 6.0 7.0 0.00 0.71 0.71 81 1009.6
20260506140004 66 212 6.0 8.0 0.00 0.71 0.71 81 1009.7
20260506135503 66 213 6.0 8.0 0.00 0.71 0.71 81 1009.7
20260506135003 66 214 6.0 8.0 0.00 0.71 0.71 81 1009.8
20260506134503 66 212 5.0 8.0 0.00 0.71 0.71 81 1009.8
20260506134003 66 211 4.0 8.0 0.00 0.71 0.71 81 1009.8
20260506133503 66 214 5.0 6.0 0.00 0.71 0.71 81 1009.9
20260506133003 66 213 5.0 8.0 0.00 0.71 0.71 81 1009.9
20260506132503 66 211 5.0 8.0 0.00 0.71 0.71 81 1010.0
20260506132003 67 211 5.0 8.0 0.00 0.71 0.71 81 1010.0
20260506131503 67 211 6.0 8.0 0.00 0.71 0.71 81 1010.0
20260506131003 66 210 6.0 9.0 0.00 0.71 0.71 81 1010.0
20260506130503 66 209 7.0 9.0 0.00 0.71 0.71 81 1010.0
20260506130004 65 209 7.0 9.0 0.00 0.71 0.71 81 1010.1
20260506125503 65 209 6.0 9.0 0.00 0.71 0.71 81 1010.0
20260506125003 65 209 6.0 11.0 0.00 0.71 0.71 81 1010.1
20260506124503 65 213 6.0 11.0 0.00 0.71 0.71 81 1010.1
20260506124003 65 211 6.0 8.0 0.00 0.71 0.71 80 1010.1
20260506123503 65 209 6.0 9.0 0.00 0.71 0.71 80 1010.0
20260506123003 65 210 5.0 9.0 0.00 0.71 0.71 79 1010.0
20260506122503 66 210 5.0 7.0 0.00 0.71 0.71 79 1010.0
20260506122003 66 210 6.0 8.0 0.00 0.71 0.71 78 1010.0
20260506121503 66 210 6.0 9.0 0.00 0.71 0.71 79 1010.0
20260506121003 66 210 6.0 9.0 0.00 0.71 0.71 80 1010.0
20260506120503 66 209 5.0 8.0 0.00 0.71 0.71 82 1010.0
20260506120004 65 208 5.0 8.0 0.00 0.71 0.71 82 1009.9
20260506115503 65 209 5.0 9.0 0.00 0.71 0.71 82 1009.9
20260506115003 66 209 5.0 9.0 0.00 0.71 0.71 82 1009.9
20260506114503 66 207 5.0 8.0 0.00 0.71 0.71 82 1009.9
20260506114003 65 207 5.0 8.0 0.00 0.71 0.71 82 1009.8
20260506113503 66 208 6.0 8.0 0.00 0.71 0.71 82 1009.9
20260506113003 66 209 7.0 10.0 0.00 0.71 0.71 82 1009.9
20260506112503 65 208 7.0 11.0 0.00 0.71 0.71 82 1009.9
20260506112003 65 207 7.0 11.0 0.00 0.71 0.71 83 1009.9
20260506111503 65 209 8.0 10.0 0.00 0.71 0.71 83 1009.8
20260506111003 65 213 8.0 11.0 0.00 0.71 0.71 83 1009.9
20260506110503 65 216 9.0 11.0 0.00 0.71 0.71 83 1009.8
20260506110004 65 219 9.0 13.0 0.00 0.71 0.71 83 1009.8
20260506105503 65 214 9.0 14.0 0.00 0.71 0.71 83 1009.8
20260506105003 65 207 9.0 14.0 0.00 0.71 0.71 83 1009.8
20260506104503 65 208 10.0 13.0 0.00 0.71 0.71 83 1009.7
20260506104003 65 211 10.0 13.0 0.00 0.71 0.71 83 1009.8
20260506103503 65 213 10.0 15.0 0.00 0.71 0.71 83 1009.8
20260506103003 65 210 11.0 15.0 0.00 0.71 0.71 83 1009.8
20260506102503 65 208 11.0 15.0 0.00 0.71 0.71 83 1009.8
20260506102003 65 213 11.0 15.0 0.00 0.71 0.71 84 1009.8
20260506101503 65 212 11.0 17.0 0.00 0.71 0.71 84 1009.8
20260506101003 65 208 11.0 17.0 0.00 0.71 0.71 84 1009.7
20260506100503 65 208 11.0 16.0 0.00 0.71 0.71 84 1009.7
20260506100004 65 209 11.0 15.0 0.00 0.71 0.71 84 1009.7
20260506095503 65 213 11.0 15.0 0.00 0.71 0.71 84 1009.6
20260506095003 65 213 12.0 17.0 0.00 0.71 0.71 84 1009.7
20260506094503 65 212 13.0 18.0 0.00 0.71 0.71 85 1009.6
20260506094004 65 212 13.0 18.0 0.00 0.71 0.71 85 1009.5
20260506093503 65 208 12.0 19.0 0.00 0.71 0.71 85 1009.5
20260506093003 65 205 11.0 19.0 0.00 0.71 0.71 85 1009.4
20260506092503 65 204 11.0 16.0 0.00 0.71 0.71 85 1009.3
20260506092004 65 204 11.0 16.0 0.00 0.71 0.71 85 1009.2
20260506091503 65 204 11.0 17.0 0.00 0.71 0.71 85 1009.1
20260506091003 65 203 11.0 21.0 0.00 0.71 0.71 85 1009.2
20260506090504 65 201 11.0 21.0 0.00 0.71 0.71 85 1009.2
20260506090004 65 205 11.0 18.0 0.00 0.71 0.71 85 1009.2
20260506085503 65 208 11.0 18.0 0.00 0.71 0.71 85 1009.0
20260506085003 65 207 11.0 17.0 0.00 0.71 0.71 86 1009.2
20260506084503 65 207 11.0 16.0 0.00 0.71 0.71 86 1009.1
20260506084003 65 208 12.0 16.0 0.00 0.71 0.71 86 1009.0
20260506083503 65 207 13.0 20.0 0.00 0.71 0.71 86 1009.0
20260506083003 65 205 12.0 21.0 0.00 0.71 0.71 86 1008.9
20260506082503 64 204 10.0 25.0 0.00 0.71 0.71 86 1009.0
20260506082003 64 201 11.0 25.0 0.01 0.71 0.71 87 1008.8
20260506081503 65 197 12.0 17.0 0.01 0.71 0.71 87 1008.5
20260506081003 64 194 12.0 19.0 0.01 0.71 0.71 87 1008.5
20260506080503 64 199 12.0 19.0 0.01 0.71 0.71 87 1008.6
20260506073503 65 226 13.0 20.0 0.01 0.71 0.71 87 1008.5
20260506073003 64 230 12.0 20.0 0.01 0.71 0.71 87 1008.5
20260506072503 65 226 11.0 20.0 0.01 0.71 0.71 87 1008.6
20260506072003 65 228 11.0 19.0 0.00 0.70 0.70 86 1008.5
20260506071503 65 226 12.0 20.0 0.00 0.70 0.70 86 1008.5
20260506071003 65 220 12.0 20.0 0.00 0.70 0.70 87 1008.4
20260506070503 65 221 11.0 22.0 0.00 0.70 0.70 86 1008.6
20260506062503 64 239 7.0 13.0 0.14 0.72 0.70 86 1008.5
20260506061503 64 237 8.0 14.0 0.25 0.73 0.70 86 1008.5
20260506061003 64 234 9.0 16.0 0.39 0.73 0.70 86 1008.4
20260506060503 64 234 10.0 16.0 0.43 0.73 0.70 86 1008.2
20260506051003 63 249 4.0 12.0 0.08 0.50 0.31 86 1008.3
20260506050503 63 250 5.0 14.0 0.04 0.47 0.27 86 1008.3
20260506045003 63 230 8.0 17.0 0.06 0.52 0.27 86 1008.2
20260506044503 63 235 9.0 17.0 0.03 0.51 0.24 86 1008.1
20260506044003 64 244 10.0 16.0 0.05 0.52 0.23 86 1008.2
20260506043503 64 239 10.0 20.0 0.05 0.55 0.23 86 1008.1
20260506043003 64 238 10.0 20.0 0.05 0.56 0.23 86 1008.2
20260506042503 64 242 9.0 17.0 0.05 0.57 0.23 86 1008.0
20260506042003 64 240 8.0 17.0 0.05 0.58 0.23 86 1008.1
20260506041503 64 238 7.0 16.0 0.05 0.61 0.23 86 1008.0
20260506041003 64 237 8.0 15.0 0.05 0.61 0.23 86 1008.1
20260506040503 64 225 10.0 13.0 0.05 0.61 0.23 86 1008.2
20260506035503 63 208 8.0 20.0 0.03 0.60 0.22 86 1008.4
20260506035004 64 207 7.0 20.0 0.03 0.61 0.21 86 1008.4
20260506034503 64 216 8.0 12.0 0.03 0.61 0.21 86 1008.5
20260506034003 64 219 10.0 13.0 0.00 0.59 0.18 85 1008.5
20260506033503 64 221 10.0 16.0 0.00 0.60 0.18 86 1008.5
20260506033004 64 229 11.0 18.0 0.00 0.60 0.18 86 1008.6
20260506032503 64 229 12.0 18.0 0.00 0.60 0.18 86 1008.4
20260506032003 64 225 11.0 20.0 0.00 0.60 0.18 86 1008.5
20260506031503 64 226 9.0 20.0 0.00 0.60 0.18 86 1008.6
20260506031003 64 230 9.0 15.0 0.00 0.60 0.18 86 1008.7
20260506030503 64 236 10.0 20.0 0.00 0.60 0.18 86 1008.6
20260506030004 64 232 7.0 20.0 0.01 0.60 0.18 86 1008.6
20260506025503 63 231 4.0 16.0 0.01 0.61 0.18 86 1008.7
20260506025003 63 231 2.0 14.0 0.02 0.61 0.18 86 1008.4
20260506024503 63 229 1.0 10.0 0.05 0.61 0.18 86 1008.5
20260506024003 62 217 0.0 9.0 0.05 0.62 0.18 86 1008.5
20260506023503 61 339 0.0 2.0 0.08 0.63 0.18 86 1008.6
20260506023003 61 332 0.0 2.0 0.09 0.64 0.18 85 1008.3
20260506022503 61 250 1.0 4.0 0.09 0.65 0.18 85 1008.5
20260506022003 61 305 1.0 4.0 0.13 0.67 0.18 85 1008.6
20260506021503 60 336 1.0 5.0 0.16 0.68 0.18 85 1008.5
20260506021003 60 335 1.0 5.0 0.16 0.69 0.18 85 1008.7
20260506020503 60 313 1.0 3.0 0.16 0.69 0.18 85 1008.8
20260506020004 60 315 1.0 4.0 0.15 0.70 0.17 85 1008.9
20260506015503 60 11 1.0 4.0 0.15 0.71 0.17 85 1009.1
20260506015003 60 12 1.0 4.0 0.14 0.72 0.17 85 1009.2
20260506014504 61 346 1.0 5.0 0.11 0.69 0.13 85 1009.3
20260506014003 61 344 0.0 5.0 0.11 0.70 0.13 85 1009.2
20260506013503 61 0 0.0 3.0 0.08 0.68 0.10 85 1009.4
20260506013003 61 0 0.0 1.0 0.07 0.68 0.09 85 1009.4
20260506012503 62 0 0.0 0.0 0.06 0.68 0.09 85 1009.5
20260506012003 61 0 0.0 0.0 0.02 0.65 0.05 85 1009.8
20260506011503 61 13 0.0 1.0 0.00 0.63 0.02 85 1009.5
20260506011003 61 7 1.0 3.0 0.00 0.64 0.02 85 1009.5
20260506010503 61 349 1.0 3.0 0.00 0.64 0.02 85 1009.6
20260506010003 61 355 1.0 3.0 0.00 0.65 0.02 85 1009.6
20260506005503 62 359 0.0 3.0 0.00 0.65 0.02 85 1009.7
20260506005003 62 301 1.0 3.0 0.00 0.66 0.02 85 1009.6
20260506004504 62 296 2.0 3.0 0.01 0.66 0.02 85 1009.7
20260506004003 62 221 3.0 6.0 0.01 0.67 0.02 84 1009.9
20260506003503 62 211 3.0 6.0 0.01 0.67 0.02 85 1010.0
20260506003003 62 203 2.0 8.0 0.01 0.67 0.02 85 1010.1
20260506002503 62 201 1.0 8.0 0.01 0.67 0.02 85 1010.0
20260506002003 62 209 1.0 4.0 0.02 0.67 0.02 85 1010.1
20260506001503 62 205 1.0 6.0 0.02 0.67 0.02 85 1009.9
20260506001003 63 218 1.0 6.0 0.02 0.67 0.02 85 1010.0
20260506000503 62 258 4.0 3.0 0.02 0.67 0.02 85 1010.0
20260506000003 62 237 7.0 13.0 0.02 0.67 0.02 85 1010.0
20260505235503 62 229 8.0 13.0 0.02 0.67 0.02 85 1010.3
20260505235003 63 213 8.0 12.0 0.02 0.67 0.02 85 1010.3
20260505234503 63 204 8.0 12.0 0.02 0.66 0.02 84 1010.5
20260505234003 63 204 7.0 13.0 0.02 0.66 0.02 84 1010.4
20260505233503 64 208 5.0 14.0 0.02 0.66 0.02 83 1010.4
20260505233003 65 213 3.0 14.0 0.02 0.66 0.02 83 1010.3
20260505232503 65 216 2.0 8.0 0.02 0.66 0.02 82 1010.4
20260505232003 65 226 2.0 6.0 0.01 0.65 0.01 82 1010.4
20260505231504 65 311 0.0 4.0 0.01 0.65 0.01 82 1010.4
20260505231003 64 0 0.0 4.0 0.01 0.65 0.01 81 1010.8
20260505230503 64 0 0.0 1.0 0.00 0.65 0.00 80 1010.8
20260505230004 64 0 0.0 1.0 0.00 0.65 0.00 80 1010.9